TimeEST,TemperatureF,Dew PointF,Humidity,Sea Level PressureIn,VisibilityMPH,Wind Direction,Wind SpeedMPH,Gust SpeedMPH,PrecipitationIn,Events,Conditions,WindDirDegrees,DateUTC
12:54 AM,9.0,5.0,84,30.21,10.0,Calm,Calm,-,N/A,,Clear,0,2013-01-06 05:54:00
1:54 AM,9.0,5.0,84,30.21,10.0,Calm,Calm,-,N/A,,Clear,0,2013-01-06 06:54:00
2:54 AM,10.9,6.1,81,30.19,10.0,Calm,Calm,-,N/A,,Clear,0,2013-01-06 07:54:00
3:54 AM,12.0,7.0,80,30.17,10.0,Calm,Calm,-,N/A,,Mostly Cloudy,0,2013-01-06 08:54:00
4:54 AM,14.0,8.1,77,30.12,10.0,Calm,Calm,-,N/A,,Overcast,0,2013-01-06 09:54:00
5:54 AM,15.1,9.0,77,30.11,10.0,Calm,Calm,-,N/A,,Overcast,0,2013-01-06 10:54:00
6:54 AM,15.1,10.0,80,30.09,10.0,Calm,Calm,-,0.00,,Overcast,0,2013-01-06 11:54:00
7:54 AM,15.1,10.9,84,30.06,7.0,Calm,Calm,-,0.00,,Overcast,0,2013-01-06 12:54:00
8:38 AM,15.8,10.4,79,30.02,6.0,Calm,Calm,-,0.00,Snow,Light Snow,0,2013-01-06 13:38:00
8:54 AM,17.1,12.0,81,30.05,9.0,Calm,Calm,-,0.00,,Overcast,0,2013-01-06 13:54:00
9:30 AM,17.6,10.4,73,30.01,10.0,Calm,Calm,-,N/A,,Mostly Cloudy,0,2013-01-06 14:30:00
9:54 AM,19.0,12.9,77,30.03,10.0,Calm,Calm,-,0.00,,Clear,0,2013-01-06 14:54:00
10:54 AM,24.1,15.1,69,29.99,10.0,Calm,Calm,-,0.00,,Clear,0,2013-01-06 15:54:00
11:54 AM,27.0,16.0,63,29.95,10.0,Calm,Calm,-,0.00,,Mostly Cloudy,0,2013-01-06 16:54:00
12:54 PM,30.0,18.0,61,29.93,10.0,NNE,4.6,-,N/A,,Scattered Clouds,30,2013-01-06 17:54:00
1:54 PM,33.1,21.0,61,29.93,10.0,North,3.5,-,0.00,,Overcast,350,2013-01-06 18:54:00
2:54 PM,33.1,19.0,56,29.91,10.0,Calm,Calm,-,N/A,,Clear,0,2013-01-06 19:54:00
3:54 PM,34.0,23.0,64,29.91,10.0,Calm,Calm,-,N/A,,Mostly Cloudy,0,2013-01-06 20:54:00
4:54 PM,32.0,23.0,69,29.91,10.0,Calm,Calm,-,0.00,,Overcast,0,2013-01-06 21:54:00
5:54 PM,28.9,21.9,75,29.92,10.0,Calm,Calm,-,N/A,,Clear,0,2013-01-06 22:54:00
7:54 PM,26.1,21.9,84,29.94,10.0,Calm,Calm,-,N/A,,Scattered Clouds,0,2013-01-07 00:54:00
8:54 PM,27.0,24.1,89,29.93,10.0,Calm,Calm,-,N/A,,Mostly Cloudy,0,2013-01-07 01:54:00
10:54 PM,24.1,23.0,96,29.94,9.0,Calm,Calm,-,N/A,,Clear,0,2013-01-07 03:54:00
11:54 PM,21.9,21.9,100,29.94,8.0,Calm,Calm,-,N/A,,Overcast,0,2013-01-07 04:54:00